Theta_e
313 310 310 309 308 308 308 308 307 307 307 307 308 310 311 313 314 314 315 312 317 319 322 324 323 322 321 320 319 318 318 316 315 315 315 316 317 317 317 318 318 318 318
310 309 309 308 307 307 308 307 306 306 306 307 308 309 310 310 311 311 312 312 312 315 318 320 321 321 320 319 319 318 318 316 316 315 315 315 315 316 317 317 317 317 317
310 309 307 308 306 306 306 306 305 306 306 307 307 307 307 307 307 306 307 310 310 309 311 314 316 316 317 317 318 318 317 315 315 314 314 314 315 316 316 316 316 316 316
308 307 307 304 305 305 306 305 304 304 305 306 305 304 304 304 303 303 303 304 305 305 306 307 309 311 312 313 315 316 316 314 314 313 313 314 314 315 315 315 315 315 315
308 305 304 304 304 303 304 304 304 304 304 305 303 303 303 302 301 301 300 300 300 300 300 300 302 303 307 310 312 315 315 314 313 312 312 313 314 314 314 314 314 314 314
306 304 301 300 301 301 300 302 301 304 305 304 301 301 302 302 301 300 299 299 299 299 299 299 299 299 302 305 309 312 313 313 312 311 312 312 313 313 314 314 314 314 314
307 304 303 300 299 299 297 298 300 301 303 304 302 301 300 300 300 300 300 299 298 298 298 298 299 299 299 300 304 308 311 311 311 311 311 311 312 313 313 313 313 313 313
306 305 304 301 299 298 297 296 297 298 303 303 303 302 298 298 299 298 299 297 297 298 297 297 297 297 298 299 299 304 306 308 310 309 309 310 311 311 312 312 312 312 312
305 303 303 299 297 298 297 300 301 300 300 302 301 302 298 298 297 297 296 297 297 298 297 297 296 296 297 297 298 300 302 304 306 306 307 308 309 310 311 311 310 311 311
301 300 300 299 297 297 298 300 301 301 301 300 300 299 301 301 299 294 296 295 296 295 296 297 297 296 296 296 296 298 299 300 301 303 304 305 307 309 309 309 310 310 310
301 300 299 299 298 296 296 298 298 299 300 300 300 298 298 299 299 299 296 292 293 295 296 296 297 296 295 296 295 297 298 299 299 300 301 302 304 306 307 308 308 307 308
301 300 299 300 300 298 295 296 298 298 299 299 299 299 298 298 297 297 297 294 294 291 294 296 297 296 295 294 292 294 297 298 299 299 299 300 301 302 303 305 305 305 305
301 300 298 297 298 298 297 296 296 297 297 297 298 298 298 298 298 298 297 295 294 291 291 294 296 296 294 294 292 292 294 296 297 297 298 298 299 299 300 302 302 302 302
303 302 300 299 297 296 297 295 295 297 298 297 297 297 297 297 297 297 297 295 291 289 290 291 294 294 294 293 291 291 293 294 295 296 297 297 297 297 298 299 299 299 299
302 302 303 300 297 296 296 295 293 294 295 297 297 297 296 297 297 296 296 297 296 291 290 290 289 293 293 292 290 292 292 291 293 294 294 295 295 296 296 297 297 297 297
301 302 303 302 298 296 294 293 292 293 293 295 295 295 295 296 295 296 296 296 295 295 293 292 292 291 291 290 290 291 290 290 291 292 292 293 293 294 294 295 295 295 295
298 298 300 301 299 296 293 293 292 293 292 294 293 294 294 295 295 295 295 294 294 294 293 290 292 290 288 289 289 290 290 290 290 289 290 290 291 292 293 293 294 294 293
293 295 298 298 298 297 295 293 291 292 291 292 292 293 293 293 293 294 294 293 293 293 292 286 288 287 287 288 288 288 287 286 286 285 288 288 289 290 291 291 292 292 291
287 291 294 296 296 294 295 292 292 291 291 291 292 292 293 293 292 293 293 292 292 290 291 290 287 289 287 286 286 287 286 286 285 284 284 286 287 288 290 290 290 290 290
286 286 288 288 288 289 292 290 291 290 291 292 292 292 293 293 293 292 292 291 290 289 289 289 287 286 286 285 287 286 285 286 287 286 284 283 284 286 288 288 289 289 289
285 285 285 286 286 289 290 292 291 290 289 290 290 291 292 291 290 292 291 290 289 288 288 288 285 285 284 283 284 286 286 286 285 286 286 283 284 285 284 287 287 288 289
284 285 286 285 286 288 290 291 291 290 288 287 287 288 291 287 289 290 289 290 290 288 287 287 286 284 284 284 285 285 286 284 283 286 286 283 284 282 282 285 286 287 288
282 284 285 286 286 288 289 290 290 289 288 287 288 287 289 289 289 290 289 289 288 289 289 288 286 285 285 285 286 285 285 286 285 285 286 284 284 282 282 283 285 286 286
282 283 285 286 286 286 288 290 290 289 288 287 288 288 289 289 290 290 289 288 287 288 288 286 287 286 286 286 287 287 287 285 284 284 285 284 285 281 283 282 283 284 284
281 282 284 285 286 286 288 289 290 287 287 287 286 287 288 288 289 289 287 286 286 287 287 286 286 286 286 286 286 285 284 284 283 284 284 286 285 284 281 281 281 281 282
281 282 283 285 286 286 288 288 289 287 286 287 286 286 285 287 288 289 287 286 284 285 285 284 285 285 284 284 283 284 286 285 285 283 284 284 285 284 283 281 281 280 281
Wind_Speed
5 5 5 4 4 4 5 6 5 5 6 6 7 7 8 8 7 5 6 16 13 13 13 12 14 13 14 14 14 14 14 14 16 16 17 18 19 20 20 21 22 23 23
5 4 5 5 4 3 3 5 6 5 5 6 7 7 8 7 7 7 6 8 15 16 14 14 14 14 13 13 14 14 14 15 16 16 17 18 20 20 21 22 23 23 24
5 4 4 4 5 5 5 5 7 5 6 6 9 7 7 8 7 7 5 5 7 17 17 16 13 13 13 14 15 14 14 15 16 17 18 19 20 21 21 23 23 24 24
8 5 3 3 5 5 4 4 5 5 5 5 7 6 6 7 7 7 6 5 5 5 11 15 15 14 12 14 14 13 14 15 16 17 18 19 20 21 22 23 24 24 25
10 8 3 4 4 5 4 5 4 4 5 6 7 6 5 5 6 6 7 7 7 5 5 9 11 12 12 13 14 14 15 15 16 17 18 19 20 21 23 23 24 25 25
7 7 8 6 2 2 5 4 3 4 5 6 7 6 5 4 4 5 6 5 6 6 5 5 3 7 11 12 14 14 15 15 16 16 18 19 20 21 22 23 24 25 26
8 7 7 5 3 2 3 6 3 6 5 7 6 5 5 4 4 4 4 4 5 5 6 5 3 3 4 11 14 14 15 15 16 16 18 19 20 21 23 23 24 25 26
7 5 7 6 5 4 5 5 5 2 2 4 1 3 3 4 3 3 3 3 4 3 4 5 5 6 4 5 9 14 15 15 16 17 18 19 19 21 22 23 24 25 26
7 7 8 6 7 4 4 7 7 5 3 5 2 2 2 1 4 3 3 2 2 2 2 4 5 6 5 6 7 9 13 14 16 17 18 18 19 20 22 22 24 25 27
6 6 7 8 6 3 3 6 5 4 3 4 3 4 1 2 2 3 2 2 2 1 1 2 3 5 5 6 7 9 11 13 15 16 17 18 20 21 21 22 24 25 27
6 6 6 7 6 4 5 5 5 5 4 3 5 3 4 3 3 3 2 4 3 2 1 2 2 3 5 5 4 7 11 12 14 15 16 18 19 20 21 22 24 25 27
5 5 6 6 7 5 2 3 5 6 5 4 4 5 4 3 4 4 2 3 4 4 3 1 1 3 4 5 4 8 10 11 13 14 16 17 19 20 21 22 23 24 25
5 7 7 6 5 6 6 5 4 5 7 5 6 5 5 4 2 3 3 3 3 2 3 3 0 2 3 4 3 5 11 10 11 13 14 16 18 19 20 22 23 24 25
4 8 9 7 6 6 6 6 4 5 6 5 7 6 4 4 4 4 3 4 3 2 3 4 3 2 2 3 3 3 6 10 11 12 14 16 17 19 20 21 23 23 24
3 5 9 9 7 7 7 7 4 4 5 6 5 6 5 4 4 5 5 4 5 4 6 5 3 4 3 3 3 4 4 9 10 12 13 15 17 18 20 22 23 23 24
6 6 6 8 8 7 7 7 5 4 6 4 4 6 5 4 4 4 5 5 4 4 3 3 3 5 4 4 3 5 4 4 11 11 12 13 15 17 19 21 22 23 24
7 6 6 6 8 9 8 8 6 6 7 6 7 7 6 5 4 4 4 4 5 4 3 2 4 7 3 5 4 5 4 5 6 12 12 12 14 16 18 20 22 23 23
9 8 7 7 7 8 8 8 7 8 8 7 7 6 7 5 6 5 4 5 4 5 3 8 4 4 3 4 5 5 4 5 6 10 12 14 13 15 17 19 21 22 23
7 8 7 8 8 5 8 7 8 7 7 7 7 7 7 7 7 5 5 4 3 3 4 5 6 4 2 3 2 2 1 4 4 8 9 12 14 14 16 18 20 21 22
7 7 6 6 5 4 5 5 7 7 6 7 7 7 8 8 8 8 6 5 4 4 5 6 6 5 4 2 3 5 3 1 2 0 7 8 9 13 15 17 19 19 20
6 6 6 6 5 4 5 7 8 7 6 6 6 7 8 7 7 7 5 6 6 5 6 7 7 6 5 5 6 4 4 3 1 1 2 5 5 6 8 13 13 18 20
7 6 6 5 6 5 7 10 9 7 6 7 7 6 6 6 9 10 8 8 7 7 8 6 6 7 8 8 6 6 5 3 2 1 1 3 4 6 6 7 15 17 18
8 7 6 6 6 7 10 11 12 6 7 7 7 7 6 6 8 8 9 9 7 7 6 6 6 6 7 8 7 6 4 3 1 2 2 1 2 5 4 6 15 16 17
8 8 7 6 6 5 11 13 11 7 6 6 8 8 9 9 9 9 9 8 7 5 5 3 4 5 4 7 6 2 3 5 3 1 1 2 1 3 3 4 13 15 16
8 8 7 8 7 6 10 13 10 6 6 7 6 8 8 9 12 14 9 8 6 4 7 9 9 10 12 10 6 5 5 5 3 2 1 1 2 1 2 4 5 12 15
8 7 9 8 8 8 10 12 11 5 6 6 6 6 11 11 17 17 9 10 9 7 7 8 8 9 8 6 5 1 4 4 2 2 2 2 2 2 1 1 4 6 6
Wind_Direction
144 142 134 129 119 128 125 116 108 104 96 89 89 91 87 84 87 82 86 34 36 50 57 59 70 70 57 51 52 47 40 34 32 25 22 18 12 9 3 359 353 349 348
132 149 134 123 113 110 110 117 112 106 103 99 91 87 87 83 78 81 79 67 48 46 49 55 56 58 55 51 47 42 38 32 31 23 21 17 13 7 5 360 357 352 350
136 122 119 131 121 114 116 118 105 109 109 102 94 85 83 80 80 77 78 79 71 51 44 42 47 52 48 45 40 36 36 31 30 23 20 16 13 10 7 4 359 356 354
122 115 124 125 132 132 132 124 115 116 108 112 106 94 85 84 80 77 73 69 67 68 55 38 39 37 43 40 35 30 36 31 29 23 21 17 15 14 12 8 4 2 0
145 130 91 101 127 117 122 115 113 122 127 114 103 99 89 81 84 83 81 76 68 65 81 78 52 38 33 39 33 27 33 32 29 24 22 21 19 19 16 13 10 8 6
130 125 120 121 72 109 113 98 94 131 132 123 110 100 88 81 81 86 86 81 71 67 66 60 64 63 36 39 35 28 31 32 31 26 27 27 24 23 20 18 16 15 12
146 133 123 124 103 109 84 103 119 152 132 139 124 110 98 87 79 84 91 83 78 64 59 54 44 39 63 44 30 30 30 33 34 32 30 29 26 24 22 20 19 17 15
134 145 134 142 127 150 157 158 171 186 136 167 154 141 166 164 130 91 96 91 83 73 60 53 46 43 39 55 37 31 31 33 37 35 31 29 25 22 22 19 18 16 14
147 135 151 144 141 178 168 190 182 188 155 183 236 312 186 229 153 157 122 131 142 92 58 60 49 43 47 57 38 29 35 35 37 34 30 28 23 22 20 18 17 16 13
131 137 138 145 145 169 185 188 180 178 191 194 202 221 262 345 249 173 192 172 176 147 59 51 44 47 52 72 41 22 38 40 39 34 31 27 23 20 17 17 15 15 12
145 144 146 148 161 182 180 187 169 178 202 239 224 172 213 217 230 250 177 186 204 204 202 17 29 55 59 64 49 33 36 40 40 34 30 27 24 19 16 15 14 14 14
164 161 159 164 167 174 235 217 187 177 198 222 236 223 210 203 204 205 204 169 212 195 205 241 32 53 59 78 53 25 31 40 38 36 29 28 24 20 17 16 16 16 17
181 185 177 174 176 184 194 204 224 197 184 210 224 231 234 228 216 237 226 143 177 164 199 224 325 68 75 87 76 12 30 37 38 36 32 28 26 23 20 19 19 18 18
224 187 191 188 188 178 180 196 215 232 180 199 228 227 238 229 210 220 217 169 152 182 195 168 178 132 100 102 95 337 60 31 38 35 30 28 27 24 24 24 22 21 20
278 226 213 205 190 186 188 186 196 205 215 196 216 228 226 225 217 225 228 224 238 191 199 190 165 165 126 127 94 93 75 30 37 35 32 30 28 26 26 27 24 22 22
305 264 235 226 210 192 190 181 181 176 211 213 187 210 217 213 210 216 227 227 224 255 163 144 181 158 143 122 85 100 80 48 34 37 32 29 31 30 28 28 26 24 22
324 296 264 236 224 211 194 197 187 185 201 212 207 189 210 206 207 200 215 223 215 209 158 143 126 130 130 135 115 96 74 73 50 36 35 35 34 34 31 30 27 26 23
331 310 287 256 238 224 205 204 197 199 190 210 225 189 199 194 214 205 202 208 206 191 142 161 144 147 142 147 145 112 77 72 59 45 44 39 36 34 33 29 27 26 25
329 320 293 270 251 238 215 203 199 198 198 179 221 210 202 192 209 204 205 200 180 177 167 163 147 147 120 164 140 125 101 98 65 43 44 45 41 38 34 32 26 25 24
329 327 313 295 278 238 218 202 199 186 199 188 197 209 208 201 207 202 196 195 173 150 163 151 155 147 151 136 182 173 168 108 86 130 59 36 37 39 29 32 24 21 23
327 320 318 311 287 249 241 228 218 201 183 184 174 200 207 198 203 195 182 187 175 169 158 166 157 160 174 173 193 179 183 152 125 346 43 31 30 33 14 28 21 19 21
333 324 328 321 307 280 260 236 219 208 190 184 183 178 201 179 195 178 174 187 190 176 174 174 167 176 178 184 181 181 162 172 192 128 224 59 24 41 27 15 20 21 21
329 323 323 323 305 292 280 255 225 216 191 190 186 176 172 203 177 177 175 178 186 193 190 171 177 177 165 176 172 168 173 182 122 105 245 96 28 53 33 13 20 21 23
325 321 315 305 303 293 282 269 233 215 201 187 184 186 174 191 181 168 165 177 180 180 166 148 179 155 149 159 166 156 128 105 90 106 296 190 157 61 39 39 23 23 25
323 319 309 304 294 291 288 274 250 202 209 196 183 182 171 176 174 168 161 168 167 161 125 117 118 123 133 140 138 137 146 161 155 172 159 243 156 141 41 30 13 15 24
301 311 311 297 282 283 283 276 255 207 209 201 183 187 183 179 176 173 168 187 182 166 137 132 126 113 104 126 121 10 162 194 159 171 143 226 165 198 187 103 16 13 9